When you browse on this site, cookies collect data to enhance your experience and personalize the content and advertising you see.
Visit our Privacy Policy to learn more. By continuing to use the site, you agree to this use of cookies and data.
  • In Hungary
  • List of Countries
  • For 7 days
  • Water Temperature
  • Weather Map
  • News
  • Weather Widgets
  • user-avatar
    Login

    Hourly Weather Chwalibogowo

    Today, 9 December, Monday

    Time Temperature Precipitation Wind Pressure Humidity
    00:00 +7°C° 0.2 mm 6 mps 742 mmHg 80%
    01:00 +7°C° 0.2 mm 6 mps 742 mmHg 81%
    02:00 +7°C° 0.3 mm 6 mps 742 mmHg 80%
    03:00 +7°C° 0.3 mm 6 mps 741 mmHg 79%
    04:00 +7°C° 0.3 mm 6 mps 741 mmHg 78%
    05:00 +7°C° 0 mm 6 mps 742 mmHg 78%
    06:00 +5°C° 0 mm 6 mps 742 mmHg 78%
    07:00 +5°C° 0 mm 6 mps 742 mmHg 78%
    08:00 +5°C° 0 mm 6 mps 743 mmHg 77%
    09:00 +5°C° 0 mm 6 mps 743 mmHg 76%
    10:00 +5°C° 0 mm 6 mps 743 mmHg 75%
    11:00 +5°C° 0 mm 6 mps 743 mmHg 71%
    12:00 +7°C° 0 mm 6 mps 743 mmHg 68%
    13:00 +7°C° 0 mm 6 mps 743 mmHg 65%
    14:00 +7°C° 0 mm 5 mps 743 mmHg 67%
    15:00 +6°C° 0 mm 4 mps 743 mmHg 69%
    16:00 +6°C° 0 mm 4 mps 743 mmHg 72%
    17:00 +5°C° 0 mm 4 mps 743 mmHg 73%
    18:00 +5°C° 0 mm 4 mps 744 mmHg 75%
    19:00 +3°C° 0 mm 5 mps 744 mmHg 76%
    20:00 +3°C° 0 mm 5 mps 744 mmHg 77%
    21:00 +3°C° 0 mm 5 mps 744 mmHg 78%
    22:00 +3°C° 0 mm 5 mps 745 mmHg 80%
    23:00 +3°C° 0 mm 5 mps 745 mmHg 82%

    Tomorrow, 10 December, Tuesday

    Time Temperature Precipitation Wind Pressure Humidity
    00:00 +2°C° 0 mm 5 mps 746 mmHg 85%
    01:00 +2°C° 0 mm 5 mps 746 mmHg 88%
    02:00 +2°C° 0.1 mm 5 mps 747 mmHg 83%
    03:00 +2°C° 0.1 mm 5 mps 747 mmHg 78%
    04:00 +2°C° 0.1 mm 5 mps 748 mmHg 73%
    05:00 +1°C° 0 mm 5 mps 749 mmHg 75%
    06:00 +1°C° 0 mm 6 mps 749 mmHg 76%
    07:00 0°C° 0 mm 7 mps 750 mmHg 78%
    08:00 -1°C° 0 mm 7 mps 750 mmHg 80%
    09:00 -1°C° 0 mm 8 mps 751 mmHg 82%
    10:00 -1°C° 0 mm 8 mps 752 mmHg 85%
    11:00 -1°C° 0.2 mm 8 mps 752 mmHg 88%
    12:00 -1°C° 0.2 mm 8 mps 753 mmHg 90%
    13:00 -1°C° 0.2 mm 8 mps 753 mmHg 93%
    14:00 0°C° 0.2 mm 8 mps 754 mmHg 92%
    15:00 0°C° 0.2 mm 7 mps 755 mmHg 91%
    16:00 0°C° 0.2 mm 7 mps 755 mmHg 90%
    17:00 +1°C° 0.1 mm 6 mps 756 mmHg 89%
    18:00 +1°C° 0.1 mm 6 mps 757 mmHg 87%
    19:00 +1°C° 0.1 mm 5 mps 758 mmHg 86%
    20:00 0°C° 0 mm 4 mps 758 mmHg 86%
    21:00 0°C° 0 mm 4 mps 758 mmHg 86%
    22:00 0°C° 0 mm 3 mps 758 mmHg 87%
    23:00 0°C° 0 mm 3 mps 758 mmHg 86%

    Day after tomorrow, 11 December, Wednesday

    Time Temperature Precipitation Wind Pressure Humidity
    00:00 -1°C° 0 mm 2 mps 758 mmHg 85%
    01:00 -1°C° 0 mm 2 mps 758 mmHg 84%
    02:00 -1°C° 0 mm 2 mps 758 mmHg 83%
    03:00 -2°C° 0 mm 2 mps 757 mmHg 82%
    04:00 -2°C° 0 mm 2 mps 757 mmHg 80%
    05:00 -2°C° 0 mm 2 mps 757 mmHg 78%
    06:00 -2°C° 0 mm 2 mps 756 mmHg 76%
    07:00 -2°C° 0 mm 3 mps 756 mmHg 74%
    08:00 -3°C° 0 mm 4 mps 755 mmHg 70%
    09:00 -2°C° 0 mm 4 mps 755 mmHg 66%
    10:00 -1°C° 0 mm 5 mps 755 mmHg 62%
    11:00 -1°C° 0 mm 5 mps 754 mmHg 61%
    12:00 0°C° 0 mm 5 mps 753 mmHg 61%
    13:00 +1°C° 0 mm 5 mps 753 mmHg 60%
    14:00 0°C° 0 mm 5 mps 752 mmHg 64%
    15:00 -1°C° 0 mm 5 mps 751 mmHg 68%
    16:00 -1°C° 0 mm 4 mps 750 mmHg 72%
    17:00 -1°C° 0 mm 5 mps 750 mmHg 73%
    18:00 -1°C° 0 mm 5 mps 750 mmHg 74%
    19:00 -2°C° 0 mm 5 mps 749 mmHg 75%
    20:00 -2°C° 0 mm 5 mps 749 mmHg 73%
    21:00 -2°C° 0 mm 5 mps 748 mmHg 70%
    22:00 -3°C° 0 mm 6 mps 748 mmHg 68%
    23:00 -3°C° 0 mm 6 mps 747 mmHg 64%

    12 December, Thursday

    Time Temperature Precipitation Wind Pressure Humidity
    00:00 -3°C° 0 mm 6 mps 747 mmHg 61%
    01:00 -2°C° 0 mm 6 mps 747 mmHg 57%
    02:00 -3°C° 0.1 mm 6 mps 746 mmHg 69%
    03:00 -3°C° 0.1 mm 6 mps 746 mmHg 80%
    04:00 -3°C° 0.1 mm 6 mps 745 mmHg 92%
    05:00 -2°C° 0 mm 6 mps 745 mmHg 88%
    06:00 -2°C° 0 mm 6 mps 745 mmHg 83%
    07:00 -2°C° 0 mm 6 mps 746 mmHg 79%
    08:00 -1°C° 0 mm 6 mps 746 mmHg 80%
    09:00 0°C° 0 mm 5 mps 746 mmHg 81%
    10:00 +1°C° 0 mm 5 mps 747 mmHg 82%
    11:00 +1°C° 0 mm 5 mps 747 mmHg 80%
    12:00 +1°C° 0 mm 4 mps 747 mmHg 79%
    13:00 +1°C° 0 mm 4 mps 747 mmHg 78%
    14:00 +2°C° 0 mm 3 mps 747 mmHg 80%
    15:00 +1°C° 0 mm 3 mps 747 mmHg 83%
    16:00 0°C° 0 mm 3 mps 747 mmHg 85%
    17:00 -1°C° 0 mm 4 mps 747 mmHg 87%
    18:00 -1°C° 0 mm 4 mps 747 mmHg 88%
    19:00 -1°C° 0 mm 4 mps 747 mmHg 89%
    20:00 -1°C° 0 mm 4 mps 747 mmHg 90%
    21:00 -1°C° 0 mm 4 mps 747 mmHg 90%
    22:00 0°C° 0 mm 3 mps 747 mmHg 90%
    23:00 -1°C° 0 mm 4 mps 746 mmHg 90%

    13 December, Friday

    Time Temperature Precipitation Wind Pressure Humidity
    00:00 -2°C° 0 mm 4 mps 745 mmHg 90%
    01:00 -3°C° 0 mm 4 mps 744 mmHg 90%
    02:00 -2°C° 0 mm 4 mps 743 mmHg 87%
    03:00 -2°C° 0 mm 5 mps 742 mmHg 85%
    04:00 -3°C° 0 mm 6 mps 741 mmHg 83%
    05:00 -3°C° 0 mm 7 mps 740 mmHg 80%
    06:00 -3°C° 0 mm 7 mps 738 mmHg 76%
    07:00 -4°C° 0 mm 8 mps 737 mmHg 73%
    08:00 -2°C° 0 mm 8 mps 737 mmHg 70%
    09:00 -2°C° 0 mm 8 mps 736 mmHg 67%
    10:00 -1°C° 0 mm 9 mps 735 mmHg 64%
    11:00 -1°C° 0.9 mm 8 mps 734 mmHg 74%
    12:00 -2°C° 0.9 mm 8 mps 733 mmHg 85%
    13:00 -2°C° 0.9 mm 7 mps 733 mmHg 96%
    14:00 -2°C° 0.4 mm 7 mps 733 mmHg 96%
    15:00 -2°C° 0.4 mm 6 mps 733 mmHg 95%
    16:00 0°C° 0.4 mm 5 mps 733 mmHg 95%
    17:00 0°C° 0 mm 5 mps 733 mmHg 93%
    18:00 -1°C° 0 mm 5 mps 733 mmHg 91%
    19:00 -1°C° 0 mm 5 mps 733 mmHg 88%
    20:00 -1°C° 0 mm 5 mps 734 mmHg 85%
    21:00 -1°C° 0 mm 6 mps 734 mmHg 81%
    22:00 -1°C° 0 mm 6 mps 734 mmHg 78%
    23:00 -1°C° 0 mm 7 mps 734 mmHg 82%

    14 December, Saturday

    Time Temperature Precipitation Wind Pressure Humidity
    00:00 -1°C° 0 mm 7 mps 734 mmHg 86%
    01:00 -1°C° 0 mm 8 mps 734 mmHg 90%
    02:00 -1°C° 0.1 mm 8 mps 734 mmHg 91%
    03:00 -1°C° 0.1 mm 8 mps 734 mmHg 92%
    04:00 -1°C° 0.1 mm 8 mps 735 mmHg 94%
    05:00 -1°C° 0.1 mm 8 mps 735 mmHg 89%
    06:00 -1°C° 0.1 mm 8 mps 736 mmHg 84%
    07:00 0°C° 0.1 mm 8 mps 736 mmHg 79%
    08:00 0°C° 0 mm 8 mps 737 mmHg 80%
    09:00 0°C° 0 mm 7 mps 737 mmHg 80%
    10:00 0°C° 0 mm 7 mps 738 mmHg 81%
    11:00 0°C° 0 mm 7 mps 738 mmHg 79%
    12:00 0°C° 0 mm 7 mps 738 mmHg 77%
    13:00 +2°C° 0 mm 6 mps 738 mmHg 75%
    14:00 +1°C° 0 mm 6 mps 739 mmHg 75%
    15:00 +1°C° 0 mm 5 mps 739 mmHg 76%
    16:00 +1°C° 0 mm 5 mps 739 mmHg 76%
    17:00 +1°C° 0 mm 4 mps 740 mmHg 82%
    18:00 +1°C° 0 mm 4 mps 740 mmHg 89%
    19:00 +1°C° 0 mm 4 mps 741 mmHg 95%
    20:00 +1°C° 0 mm 4 mps 741 mmHg 94%
    21:00 +1°C° 0 mm 4 mps 742 mmHg 93%
    22:00 +1°C° 0 mm 4 mps 742 mmHg 93%
    23:00 +1°C° 0 mm 4 mps 742 mmHg 92%
    Show more